CW1490 Weather Reports


Display with metric or nautical units.
time (UTC)temp
F
wind
direction
speed
MPH
gust
MPH
rain 1hr
in
rain 24hr
in
rain mn
in
humidity
%
barometer
mb
20160828120119 64 213 0.0 0.0 0.00 0.00 0.00 98 1024.6
20160828114549 64 183 0.0 0.0 0.00 0.00 0.00 98 1024.6
20160828113041 63 183 0.0 0.0 0.00 0.00 0.00 98 1024.5
20160828111541 63 178 0.0 0.0 0.00 0.00 0.00 98 1024.5
20160828110051 63 178 0.0 0.0 0.00 0.00 0.00 97 1024.3
20160828104535 64 59 0.0 2.0 0.00 0.00 0.00 98 1024.2
20160828103038 64 55 0.0 0.0 0.00 0.00 0.00 98 1023.9
20160828101539 64 55 0.0 1.0 0.00 0.00 0.00 98 1023.7
20160828100034 64 53 0.0 1.0 0.00 0.00 0.00 98 1023.6
20160828094526 64 53 0.0 1.0 0.00 0.00 0.00 97 1023.5
20160828093028 64 53 0.0 3.0 0.00 0.00 0.00 97 1023.6
20160828091533 64 53 0.0 2.0 0.00 0.00 0.00 97 1023.3
20160828090022 64 53 0.0 0.0 0.00 0.00 0.00 97 1023.2
20160828084520 64 53 0.0 0.0 0.00 0.00 0.00 97 1022.9
20160828083019 64 53 0.0 0.0 0.00 0.00 0.00 97 1022.9
20160828081524 64 53 0.0 0.0 0.00 0.00 0.00 97 1022.8
20160828080031 64 53 0.0 0.0 0.00 0.00 0.00 97 1022.8
20160828074519 64 53 0.0 0.0 0.00 0.00 0.00 97 1022.7
20160828073030 64 53 0.0 0.0 0.00 0.00 0.00 97 1022.7
20160828070117 63 53 0.0 0.0 0.00 0.00 0.00 97 1022.8
20160828064516 63 53 0.0 0.0 0.00 0.00 0.00 97 1022.8
20160828063016 63 53 0.0 0.0 0.00 0.00 0.00 97 1022.7
20160828061514 62 53 0.0 0.0 0.00 0.00 0.00 97 1022.6
20160828060018 63 53 0.0 0.0 0.00 0.00 0.00 97 1022.8
20160828054513 63 53 0.0 0.0 0.00 0.00 0.00 97 1022.7
20160828053011 63 53 0.0 0.0 0.00 0.00 0.00 97 1022.8
20160828051530 63 53 0.0 0.0 0.00 0.00 0.00 97 1022.8
20160828050011 64 53 0.0 0.0 0.00 0.00 0.00 97 1022.8
20160828044511 64 53 0.0 0.0 0.00 0.00 0.00 97 1022.8
20160828043008 64 53 0.0 0.0 0.00 0.00 0.00 97 1022.8
20160828041511 64 53 0.0 0.0 0.00 0.00 0.00 97 1022.8
20160828040002 65 53 0.0 0.0 0.00 0.00 0.00 96 1022.8
20160828034505 65 53 0.0 0.0 0.00 0.00 0.00 97 1022.6
20160828033006 65 53 0.0 0.0 0.00 0.00 0.00 96 1022.7
20160828031504 66 53 0.0 0.0 0.00 0.00 0.00 96 1022.7
20160828030002 66 53 0.0 0.0 0.00 0.00 0.00 96 1022.6
20160828024508 66 53 0.0 0.0 0.00 0.00 0.00 96 1022.6
20160828023006 66 53 0.0 0.0 0.00 0.00 0.00 96 1022.5
20160828021457 67 53 0.0 0.0 0.00 0.00 0.00 96 1022.2
20160828015959 67 53 0.0 0.0 0.00 0.00 0.00 96 1022.4
20160828014458 68 53 0.0 0.0 0.00 0.00 0.00 95 1022.4
20160828013103 68 53 0.0 0.0 0.00 0.00 0.00 95 1022.2
20160828011452 69 53 0.0 0.0 0.00 0.00 0.00 95 1022.1
20160828005953 69 53 0.0 0.0 0.00 0.00 0.00 95 1021.9
20160828004804 69 53 0.0 0.0 0.00 0.00 0.00 94 1021.6
20160828002955 70 53 0.0 0.0 0.00 0.00 0.00 94 1021.4
20160828001453 71 53 0.0 1.0 0.00 0.00 0.00 93 1021.2
20160828000001 72 53 0.0 0.0 0.00 0.00 0.00 93 1021.0
20160827234451 73 53 0.0 0.0 0.00 0.00 0.00 92 1021.0
20160827232950 74 53 0.0 0.0 0.00 0.00 0.00 90 1020.8
20160827231447 74 53 0.0 1.0 0.00 0.00 0.00 90 1020.7
20160827225956 75 53 0.0 1.0 0.00 0.00 0.00 89 1020.5
20160827224451 76 53 0.0 0.0 0.00 0.00 0.00 84 1020.2
20160827222955 76 53 0.0 0.0 0.00 0.00 0.00 81 1020.1
20160827221457 77 53 0.0 0.0 0.00 0.00 0.00 78 1020.0
20160827215948 78 53 0.0 1.0 0.00 0.00 0.00 78 1020.0
20160827214446 79 53 0.0 1.0 0.00 0.00 0.00 75 1020.1
20160827212947 79 53 0.0 1.0 0.00 0.00 0.00 74 1020.1
20160827211444 80 53 0.0 2.0 0.00 0.00 0.00 69 1020.0
20160827205944 82 55 0.0 2.0 0.00 0.00 0.00 61 1020.0
20160827204442 84 50 0.0 5.0 0.00 0.00 0.00 61 1019.9
20160827202943 85 68 2.0 4.0 0.00 0.00 0.00 59 1019.9
20160827201445 84 123 2.0 4.0 0.00 0.00 0.00 55 1020.0
20160827200000 84 32 1.0 3.0 0.00 0.00 0.00 55 1020.0
20160827194444 84 47 2.0 5.0 0.00 0.00 0.00 53 1020.0
20160827192939 85 51 2.0 4.0 0.00 0.00 0.00 58 1020.1
20160827191442 84 8 0.0 3.0 0.00 0.00 0.00 55 1020.1
20160827185937 83 287 1.0 3.0 0.00 0.00 0.00 59 1020.2
20160827184445 84 269 1.0 3.0 0.00 0.00 0.00 56 1020.4
20160827182942 84 23 2.0 3.0 0.00 0.00 0.00 54 1020.4
20160827181434 83 65 1.0 4.0 0.00 0.00 0.00 54 1020.4
20160827175932 84 41 4.0 6.0 0.00 0.00 0.00 60 1020.5
20160827174435 84 44 3.0 5.0 0.00 0.00 0.00 54 1020.5
20160827173131 83 345 2.0 5.0 0.00 0.00 0.00 54 1020.6
20160827171428 83 52 2.0 6.0 0.00 0.00 0.00 61 1020.7
20160827165929 82 45 4.0 8.0 0.00 0.00 0.00 66 1020.7
20160827164424 82 50 2.0 5.0 0.00 0.00 0.00 65 1020.8
20160827162922 81 53 3.0 6.0 0.00 0.00 0.00 70 1021.0
20160827161424 81 52 3.0 8.0 0.00 0.00 0.00 69 1021.1
20160827155920 80 42 2.0 6.0 0.00 0.00 0.00 70 1021.1
20160827154413 79 45 3.0 6.0 0.00 0.00 0.00 70 1021.3
20160827152909 79 33 3.0 6.0 0.00 0.00 0.00 66 1021.5
20160827151407 78 64 2.0 4.0 0.00 0.00 0.00 69 1021.6
20160827145901 76 55 1.0 5.0 0.00 0.00 0.00 76 1021.7
20160827144400 74 34 3.0 5.0 0.00 0.00 0.00 78 1021.7
20160827142857 72 53 3.0 5.0 0.00 0.00 0.00 88 1022.0
20160827141350 70 68 2.0 5.0 0.00 0.00 0.00 96 1022.0
20160827135850 68 37 2.0 6.0 0.00 0.00 0.00 98 1021.9
20160827134346 66 58 3.0 6.0 0.00 0.00 0.00 98 1022.0
20160827132836 65 61 3.0 6.0 0.00 0.00 0.00 98 1022.1
20160827131336 64 26 2.0 6.0 0.00 0.00 0.00 98 1021.9
20160827125837 63 40 2.0 5.0 0.00 0.00 0.00 98 1021.8
20160827124331 63 43 0.0 3.0 0.00 0.00 0.00 98 1021.7
20160827122834 63 84 0.0 2.0 0.00 0.00 0.00 98 1021.5
20160827121331 62 86 0.0 0.0 0.00 0.00 0.00 98 1021.6